Location: Beemte
(52.2555°N, 5.9895°E)
Time: 13:25:28
(UTC+00:00)

Cosmos 220 Rocket - Pass Details

Date: 15 May 2026
Orbit: 537 x 573 km, 74.0° (Epoch: 11 June)

Event Time Altitude Azimuth Distance (km) Brightness Sun altitude
Exits shadow 20:32:33 - 183° (S) 2,447 6.7 -8.7°
Reaches altitude 10° 20:34:10 10° 178° (S) 1,815 6.0 -8.9°
Maximum altitude 20:37:57 41° 107° (ESE) 806 4.3 -9.3°
Drops below altitude 10° 20:41:50 10° 37° (NE) 1,851 6.7 -9.7°
Sets 20:44:07 0° 30° (NNE) 2,758 7.7 -9.9°
